This is the latest recevied weather packets stored in our database for station/object N6GPM. If no packets are shown the sender has not sent any weather packets the latest 10 day(s).
| Time | Temp. | Humidity | Pressure | Rain* | Wind** | Luminosity | Snow |
|---|---|---|---|---|---|---|---|
| 1778000394 | 12.78° C | 75% | 1017.9 hPa | 0 mm | - | 285 W/m² | - |
| 1778000090 | 12.78° C | 75% | 1017.8 hPa | 0 mm | - | 273 W/m² | - |
| 1777999786 | 12.78° C | 77% | 1017.7 hPa | 0 mm | - | 255 W/m² | - |
| 1777999483 | 12.78° C | 78% | 1017.7 hPa | 0 mm | - | 370 W/m² | - |
| 1777999181 | 12.78° C | 78% | 1017.8 hPa | 0 mm | - | 226 W/m² | - |
| 1777998879 | 12.22° C | 78% | 1017.7 hPa | 0 mm | - | 252 W/m² | - |
| 1777998578 | 12.22° C | 79% | 1017.6 hPa | 0 mm | - | 337 W/m² | - |
| 1777998274 | 12.22° C | 80% | 1017.7 hPa | 0 mm | - | 239 W/m² | - |
| 1777997970 | 12.22° C | 82% | 1017.4 hPa | 0 mm | - | 324 W/m² | - |
| 1777997667 | 11.67° C | 81% | 1017.7 hPa | 0 mm | - | 534 W/m² | - |
| 1777997365 | 12.22° C | 84% | 1017.7 hPa | 0 mm | - | 312 W/m² | - |
| 1777997063 | 11.67° C | 85% | 1017.6 hPa | 0 mm | - | 285 W/m² | - |
| 1777996759 | 11.11° C | 87% | 1017.6 hPa | 0 mm | - | 313 W/m² | - |
| 1777996456 | 11.11° C | 88% | 1017.5 hPa | 0 mm | - | 215 W/m² | - |
| 1777996152 | 10.56° C | 90% | 1017.3 hPa | 0 mm | - | 245 W/m² | - |
| 1777995848 | 10.56° C | 92% | 1017.4 hPa | 0 mm | - | 222 W/m² | - |
| 1777995545 | 10.56° C | 93% | 1017.3 hPa | 0 mm | - | 456 W/m² | - |
| 1777995242 | 10.56° C | 94% | 1017.2 hPa | 0 mm | - | 235 W/m² | - |
| 1777994939 | 10° C | 95% | 1017 hPa | 0 mm | - | 191 W/m² | - |
| 1777994635 | 10° C | 95% | 1017.2 hPa | 0 mm | - | 171 W/m² | - |
| 1777994330 | 10° C | 95% | 1017.3 hPa | 0 mm | - | 180 W/m² | - |
| 1777994027 | 10.56° C | 95% | 1017.2 hPa | 0 mm | - | 183 W/m² | - |
| 1777993724 | 10° C | 95% | 1017.2 hPa | 0 mm | - | 152 W/m² | - |
| 1777993421 | 10° C | 95% | 1016.9 hPa | 0 mm | - | 147 W/m² | - |
| 1777993115 | 10.56° C | 96% | 1017 hPa | 0 mm | - | 133 W/m² | - |
* Rain latest hour (hover to see other rain measurements)
** Current wind speed in m/s (hover to see current wind gust speed)